TimeCST,TemperatureF,Dew PointF,Humidity,Sea Level PressureIn,VisibilityMPH,Wind Direction,Wind SpeedMPH,Gust SpeedMPH,PrecipitationIn,Events,Conditions,WindDirDegrees,DateUTC
12:52 AM,53.1,23.0,31,29.83,10.0,WNW,16.1,21.9,N/A,,Overcast,300,2013-01-12 06:52:00
1:52 AM,48.0,27.0,44,29.86,10.0,NW,15.0,20.7,N/A,,Overcast,310,2013-01-12 07:52:00
2:52 AM,43.0,34.0,71,29.91,10.0,NW,9.2,-,N/A,,Overcast,320,2013-01-12 08:52:00
3:52 AM,39.0,32.0,76,29.93,10.0,NNW,18.4,26.5,N/A,,Overcast,340,2013-01-12 09:52:00
4:52 AM,36.0,28.9,76,29.94,10.0,NNW,19.6,24.2,N/A,,Overcast,340,2013-01-12 10:52:00
5:52 AM,35.1,26.1,70,29.97,10.0,North,13.8,-,N/A,,Overcast,360,2013-01-12 11:52:00
6:52 AM,33.1,24.1,70,29.98,10.0,North,15.0,19.6,N/A,,Overcast,360,2013-01-12 12:52:00
7:52 AM,30.9,21.9,69,30.04,10.0,North,11.5,24.2,N/A,,Overcast,350,2013-01-12 13:52:00
8:52 AM,30.9,19.9,64,30.07,10.0,North,12.7,-,N/A,,Overcast,360,2013-01-12 14:52:00
9:52 AM,30.9,19.9,64,30.06,10.0,North,12.7,-,0.00,,Mostly Cloudy,360,2013-01-12 15:52:00
10:52 AM,32.0,18.0,56,30.03,10.0,NNE,16.1,24.2,0.00,,Partly Cloudy,20,2013-01-12 16:52:00
11:52 AM,30.2,19.4,64,30.01,10.0,NNE,12.7,-,N/A,,Overcast,20,2013-01-12 17:52:00
12:52 PM,30.0,19.9,66,30.00,10.0,North,12.7,-,0.00,,Overcast,10,2013-01-12 18:52:00
1:31 PM,28.4,21.2,74,29.98,7.0,North,16.1,20.7,0.00,Rain,Light Freezing Rain,360,2013-01-12 19:31:00
1:47 PM,28.4,23.0,80,29.98,3.0,North,13.8,26.5,N/A,Rain,Light Freezing Rain,10,2013-01-12 19:47:00
1:52 PM,28.9,24.1,82,30.00,2.5,North,16.1,21.9,N/A,Rain,Light Freezing Rain,360,2013-01-12 19:52:00
2:02 PM,28.4,23.0,80,29.99,3.0,North,15.0,23.0,N/A,Rain,Light Freezing Rain,350,2013-01-12 20:02:00
2:26 PM,26.6,23.0,86,29.97,3.0,North,15.0,24.2,N/A,Snow,Light Snow,350,2013-01-12 20:26:00
2:52 PM,26.1,23.0,88,29.99,5.0,North,13.8,-,N/A,Snow,Light Snow,10,2013-01-12 20:52:00
3:00 PM,26.6,23.0,86,29.99,6.0,North,13.8,20.7,N/A,Snow,Light Snow,350,2013-01-12 21:00:00
3:18 PM,26.6,23.0,86,30.03,8.0,North,8.1,-,N/A,,Overcast,350,2013-01-12 21:18:00
3:35 PM,26.6,23.0,86,30.01,4.0,North,12.7,-,N/A,,Overcast,10,2013-01-12 21:35:00
3:39 PM,26.6,21.2,80,30.01,2.5,North,16.1,21.9,N/A,Snow,Light Snow,10,2013-01-12 21:39:00
3:46 PM,26.6,21.2,80,29.99,1.8,North,15.0,-,N/A,Snow,Light Snow,10,2013-01-12 21:46:00
3:52 PM,26.1,21.9,84,30.01,1.5,NNE,13.8,21.9,N/A,Snow,Light Snow,20,2013-01-12 21:52:00
4:03 PM,26.6,21.2,80,29.97,2.0,NNE,15.0,21.9,N/A,Snow,Light Snow,20,2013-01-12 22:03:00
4:38 PM,26.6,23.0,86,30.06,1.8,NNW,9.2,-,N/A,Snow,Light Snow,340,2013-01-12 22:38:00
4:48 PM,26.6,23.0,86,30.04,1.0,North,10.4,-,N/A,Snow,Light Snow,350,2013-01-12 22:48:00
4:52 PM,26.1,23.0,88,30.04,0.8,North,11.5,-,N/A,Snow,Light Snow,360,2013-01-12 22:52:00
5:07 PM,26.6,23.0,86,29.99,1.2,North,10.4,-,N/A,Snow,Light Snow,10,2013-01-12 23:07:00
5:11 PM,26.6,21.2,80,29.99,2.0,North,11.5,-,N/A,Snow,Light Snow,360,2013-01-12 23:11:00
5:18 PM,26.6,19.4,74,29.98,7.0,North,15.0,21.9,N/A,Snow,Light Snow,360,2013-01-12 23:18:00
5:52 PM,27.0,17.1,66,30.02,10.0,North,13.8,24.2,N/A,,Overcast,350,2013-01-12 23:52:00
6:52 PM,26.1,16.0,66,30.03,10.0,North,15.0,-,N/A,,Overcast,360,2013-01-13 00:52:00
7:52 PM,25.0,16.0,69,30.09,10.0,North,11.5,-,N/A,,Overcast,350,2013-01-13 01:52:00
8:52 PM,24.1,17.1,75,30.06,10.0,NNW,17.3,21.9,N/A,,Overcast,340,2013-01-13 02:52:00
9:52 PM,24.1,17.1,75,30.08,10.0,North,16.1,20.7,N/A,,Overcast,350,2013-01-13 03:52:00
10:52 PM,25.0,16.0,69,30.08,10.0,North,13.8,20.7,N/A,,Overcast,350,2013-01-13 04:52:00
11:52 PM,21.2,12.2,68,30.06,10.0,North,10.4,20.7,N/A,,Partly Cloudy,350,2013-01-13 05:52:00